Location: Golden Pond Observatory
(36.7667°N, 88.0167°W)
Time: 04:24:20
(UTC-06:00)

Amateur Radio Satellites - All Passes

Search period start: 19 November 2017 03:54
Search period end: 20 November 2017 03:54
Location: Golden Pond Observatory, 36.7667°N, 88.0167°W

Satellite Date Start Highest point End Downlink Frequencies (MHz)
Time Altitude Azimuth
M-CUBED/EXP-1 PRIME 19 Nov 04:14:21 04:15:37 11° 301° (WNW) 04:16:52 437.505
STARS 19 Nov 04:15:39 04:19:26 28° 70° (ENE) 04:23:14 437.465
BEESAT 3 19 Nov 04:20:50 04:22:45 13° 314° (NW) 04:24:40 437.485
nSIGHT-1 19 Nov 04:46:32 04:49:32 40° 226° (SW) 04:52:31 .
AO-85 19 Nov 04:54:54 04:58:35 42° 304° (NW) 05:02:25 145.980
XW-2F 19 Nov 04:57:17 04:58:45 12° 93° (E) 05:00:13 145.980 - 146.000
CUTE-I 19 Nov 04:58:33 05:01:24 14° 92° (E) 05:04:14 437.470
YUBILEINY 19 Nov 05:02:34 05:10:52 51° 89° (E) 05:19:16 435.215
AO-7 19 Nov 05:09:38 05:16:17 28° 302° (WNW) 05:22:58 .
DOVE 4 19 Nov 05:21:10 05:26:15 53° 287° (WNW) 05:31:04 437.250
KKS-1 19 Nov 05:21:21 05:24:38 20° 265° (W) 05:27:55 437.445
ISS 19 Nov 05:23:05 05:25:37 21° 229° (SW) 05:28:07 437.550
ITAMSAT 1 19 Nov 05:25:13 05:26:16 11° 300° (WNW) 05:27:19 435.822/435.867
KAITUO 1B 19 Nov 05:28:06 05:31:07 23° 96° (E) 05:34:08 145.475/437.950
XW-2D 19 Nov 05:36:11 05:39:50 43° 99° (E) 05:43:29 145.860 - 145.880
HO-68 19 Nov 05:50:45 05:56:09 22° 94° (E) 06:01:30 435.675
XW-2B 19 Nov 05:50:49 05:54:36 67° 101° (E) 05:58:24 145.730 - 145.750
STARS 19 Nov 05:52:13 05:55:43 23° 264° (W) 05:59:14 437.465
RS-15 19 Nov 06:01:33 06:10:51 29° 257° (WSW) 06:19:50 29.354- 29.394
SEEDS 19 Nov 06:04:17 06:05:37 11° 91° (E) 06:06:58 437.485
LilacSat-2 19 Nov 06:15:17 06:18:59 50° 285° (WNW) 06:22:43 437.200
XW-2C 19 Nov 06:16:20 06:20:02 52° 285° (WNW) 06:23:44 145.795 - 145.815
NUDT-PHONESAT 19 Nov 06:16:25 06:20:07 81° 284° (WNW) 06:23:49 437.300
STRAND 1 19 Nov 06:25:39 06:30:47 72° 74° (ENE) 06:35:55 437.568
XW-2F 19 Nov 06:29:27 06:32:59 38° 286° (WNW) 06:36:31 145.980 - 146.000
SO-50 19 Nov 06:30:21 06:34:37 35° 53° (NE) 06:38:57 436.795
CUTE-I 19 Nov 06:36:31 06:41:49 62° 287° (WNW) 06:47:04 437.470
FO-29 19 Nov 06:38:16 06:43:35 27° 63° (ENE) 06:49:23 435.910
XW-2A 19 Nov 06:43:56 06:45:29 13° 94° (E) 06:47:03 145.665 - 145.685
ZACube-1 19 Nov 06:57:25 06:58:56 12° 92° (E) 07:00:26 437.345
UWE-3 19 Nov 07:00:01 07:03:31 26° 96° (E) 07:07:00 435.000/436.395/437.385
YUBILEINY 19 Nov 07:00:23 07:07:54 32° 288° (WNW) 07:15:33 435.215
KAITUO 1B 19 Nov 07:02:09 07:04:55 20° 290° (WNW) 07:07:43 145.475/437.950
CUTE 1.7 + AOD 2 19 Nov 07:02:10 07:06:27 81° 283° (WNW) 07:10:43 437.475
XW-2D 19 Nov 07:12:22 07:13:35 11° 293° (WNW) 07:14:46 145.860 - 145.880
CUBEBUG 2 19 Nov 07:34:09 07:38:16 60° 285° (WNW) 07:42:20 437.445
HO-68 19 Nov 07:37:12 07:44:15 61° 290° (WNW) 07:51:16 435.675
SEEDS 19 Nov 07:37:26 07:41:33 51° 285° (WNW) 07:45:40 437.485
TIGRISAT 19 Nov 07:37:57 07:38:34 10° 64° (ENE) 07:39:12 435.000
AO-73 19 Nov 07:47:48 07:51:45 42° 99° (E) 07:55:42 145.935
AAUSAT CUBESAT 2 19 Nov 07:51:16 07:55:29 86° 282° (WNW) 07:59:39 437.432
Oscar 11 19 Nov 08:06:49 08:11:00 48° 99° (E) 08:15:11 .
STRAND 1 19 Nov 08:08:47 08:10:24 11° 269° (W) 08:12:01 437.568
SO-50 19 Nov 08:11:11 08:14:53 23° 249° (WSW) 08:18:37 436.795
XW-2A 19 Nov 08:15:21 08:18:13 27° 287° (WNW) 08:21:05 145.665 - 145.685
FO-29 19 Nov 08:21:57 08:28:06 51° 262° (W) 08:35:04 435.910
ZACube-1 19 Nov 08:31:28 08:35:26 46° 286° (WNW) 08:39:25 437.345
UWE-3 19 Nov 08:36:41 08:39:48 21° 291° (WNW) 08:42:55 435.000/436.395/437.385
DELFI C3 19 Nov 08:44:03 08:47:17 23° 96° (E) 08:50:28 145.870
Max Valier Satellite 19 Nov 08:44:55 08:47:02 15° 94° (E) 08:49:09 145.860
EO-88 19 Nov 08:49:34 08:50:39 11° 92° (E) 08:51:44 145.990 - 145.960
PCSat 19 Nov 09:03:41 09:08:30 31° 55° (NE) 09:13:17 145.827
UNISAT 6 19 Nov 09:05:02 09:09:39 75° 259° (WSW) 09:14:12 437.425
TIGRISAT 19 Nov 09:10:02 09:14:39 73° 259° (WSW) 09:19:11 435.000
PRISM 19 Nov 09:10:47 09:14:38 40° 73° (ENE) 09:18:32 437.425
AO-73 19 Nov 09:25:32 09:27:36 14° 293° (WNW) 09:29:39 145.935
FALCONSAT 3 19 Nov 09:35:58 09:38:46 20° 154° (SSE) 09:41:34 435.103
Oscar 11 19 Nov 09:44:34 09:46:41 14° 294° (WNW) 09:48:49 .
QB50P2 19 Nov 10:00:02 10:02:45 17° 67° (ENE) 10:05:27 145.880/145.840
Max Valier Satellite 19 Nov 10:17:41 10:20:52 28° 288° (WNW) 10:24:02 145.860
DELFI C3 19 Nov 10:18:45 10:21:52 22° 290° (WNW) 10:24:59 145.870
EO-88 19 Nov 10:21:02 10:24:26 37° 286° (WNW) 10:27:48 145.990 - 145.960
ESTCUBE 1 19 Nov 10:35:02 10:38:39 23° 95° (E) 10:42:15 437.505/2401.250
AIST 2D 19 Nov 10:38:40 10:42:02 53° 260° (W) 10:45:26 435.315
PCSat 19 Nov 10:47:02 10:51:49 33° 251° (WSW) 10:56:35 145.827
PRISM 19 Nov 10:48:00 10:50:03 13° 267° (W) 10:52:08 437.425
DUCHIFAT 1 19 Nov 10:51:43 10:55:44 44° 73° (ENE) 10:59:44 145.980
LO-87 19 Nov 10:52:21 10:55:49 52° 100° (E) 10:59:14 145.935 - 145.965
EO-79 19 Nov 10:56:04 11:00:17 68° 75° (ENE) 11:04:30 145.935-145.965
BEESAT 3 19 Nov 11:00:30 11:03:08 17° 49° (NE) 11:05:45 437.485
NANOSAT C BR1 19 Nov 11:00:49 11:05:00 67° 76° (ENE) 11:09:12 145.865
POLYITAN 1 19 Nov 11:10:45 11:15:00 81° 257° (WSW) 11:19:15 437.675
FALCONSAT 3 19 Nov 11:13:53 11:17:30 56° 169° (SSE) 11:21:08 435.103
Oscar 19 19 Nov 11:32:36 11:36:11 19° 65° (ENE) 11:39:45 437.125/150
QB50P2 19 Nov 11:34:16 11:38:12 37° 262° (W) 11:42:09 145.880/145.840
Gurwin Techsat 1B 19 Nov 11:41:08 11:44:31 17° 64° (ENE) 11:47:54 435.225
AO-85 19 Nov 11:49:37 11:50:30 10° 43° (NE) 11:51:23 145.980
BUGSAT 1 19 Nov 11:52:37 11:56:43 53° 74° (ENE) 12:00:48 437.445
BEESAT 2 19 Nov 12:06:14 12:09:34 24° 52° (NE) 12:12:50 435.950
ESTCUBE 1 19 Nov 12:11:29 12:15:23 29° 290° (WNW) 12:19:16 437.505/2401.250
SPROUT 19 Nov 12:18:14 12:22:30 81° 102° (ESE) 12:26:44 437.525
AO-7 19 Nov 12:24:58 12:28:54 14° 50° (NE) 12:32:51 .
DUCHIFAT 1 19 Nov 12:29:35 12:31:34 13° 268° (W) 12:33:33 145.980
O/OREOS (USA 219) 19 Nov 12:34:55 12:38:30 23° 101° (ESE) 12:42:06 437.305
BEESAT 3 19 Nov 12:37:10 12:40:48 38° 246° (WSW) 12:44:23 437.485
VELOX 1 19 Nov 12:40:41 12:45:10 88° 103° (ESE) 12:49:35 145.980
UKube-1 19 Nov 12:45:51 12:47:12 11° 92° (E) 12:48:32 .
FALCONSAT 3 19 Nov 12:52:49 12:56:30 71° 184° (S) 13:00:11 435.103
Oscar 19 19 Nov 13:10:14 13:15:07 45° 261° (W) 13:20:02 437.125/150
50 SAT 19 Nov 13:16:08 13:19:18 52° 100° (E) 13:22:25 437.505
Gurwin Techsat 1B 19 Nov 13:18:45 13:23:57 56° 259° (W) 13:29:11 435.225
M-CUBED/EXP-1 PRIME 19 Nov 13:21:08 13:24:30 58° 71° (ENE) 13:28:10 437.505
ITAMSAT 1 19 Nov 13:22:10 13:24:18 13° 61° (ENE) 13:26:25 435.822/435.867
AO-85 19 Nov 13:26:50 13:31:35 74° 59° (ENE) 13:36:42 145.980
BUGSAT 1 19 Nov 13:31:16 13:32:19 11° 268° (W) 13:33:23 437.445
DX 1 19 Nov 13:32:44 13:37:07 72° 102° (ESE) 13:41:28 434.975-435.025
BEESAT 2 19 Nov 13:43:52 13:47:13 26° 248° (WSW) 13:50:30 435.950
AO-7 19 Nov 14:11:59 14:20:11 71° 69° (ENE) 14:28:26 .
O/OREOS (USA 219) 19 Nov 14:13:38 14:17:42 30° 297° (WNW) 14:21:48 437.305
UKube-1 19 Nov 14:19:16 14:23:30 53° 286° (WNW) 14:27:41 .
BEESAT 19 Nov 14:28:24 14:32:07 22° 95° (E) 14:35:49 436.000
FALCONSAT 3 19 Nov 14:31:59 14:35:24 36° 199° (SSW) 14:38:49 435.103
ITUPSAT 1 19 Nov 14:36:28 14:40:29 27° 96° (E) 14:44:28 437.325
DOVE 4 19 Nov 14:48:47 14:51:03 13° 62° (ENE) 14:53:22 437.250
ITAMSAT 1 19 Nov 14:57:50 15:03:03 77° 257° (WSW) 15:08:19 435.822/435.867
MOZHAYETS 4 19 Nov 15:07:19 15:11:54 84° 101° (E) 15:16:28
AO-85 19 Nov 15:09:44 15:11:32 12° 252° (WSW) 15:13:21 145.980
CUBESAT XI-V 19 Nov 15:14:21 15:17:55 21° 94° (E) 15:21:28 437.345
YUBILEINY 19 Nov 15:16:31 15:23:01 22° 68° (ENE) 15:29:29 435.215
NO-84 19 Nov 15:22:04 15:25:43 75° 315° (NW) 15:29:40 435.350 FM
JUGNU 19 Nov 15:40:10 15:42:41 13° 173° (S) 15:45:13 437.505
BEESAT 19 Nov 16:05:40 16:09:53 33° 290° (WNW) 16:14:06 436.000
AO-7 19 Nov 16:07:27 16:13:31 22° 266° (W) 16:19:37 .
FALCONSAT 3 19 Nov 16:13:31 16:13:55 10° 212° (SSW) 16:14:21 435.103
ITUPSAT 1 19 Nov 16:14:12 16:18:13 28° 291° (WNW) 16:22:13 437.325
XW-2D 19 Nov 16:16:09 16:18:22 15° 69° (ENE) 16:20:36 145.860 - 145.880
CUTE-I 19 Nov 16:17:43 16:21:34 20° 65° (ENE) 16:25:24 437.470
HO-68 19 Nov 16:19:35 16:22:58 14° 55° (NE) 16:26:19 435.675
DOVE 4 19 Nov 16:23:05 16:27:59 71° 259° (W) 16:33:10 437.250
XW-2B 19 Nov 16:30:09 16:33:02 22° 71° (ENE) 16:35:56 145.730 - 145.750
CUBESAT XI-V 19 Nov 16:51:06 16:55:18 34° 289° (WNW) 16:59:30 437.345
NUDT-PHONESAT 19 Nov 16:53:06 16:56:15 28° 72° (ENE) 16:59:24 437.300
LilacSat-2 19 Nov 16:54:23 16:58:00 50° 75° (ENE) 17:01:39 437.200
XW-2C 19 Nov 16:54:50 16:58:24 46° 75° (ENE) 17:02:00 145.795 - 145.815
NO-84 19 Nov 17:01:41 17:03:44 14° 334° (NNW) 17:05:50 435.350 FM
XW-2F 19 Nov 17:07:12 17:10:52 64° 76° (ENE) 17:14:33 145.980 - 146.000
YUBILEINY 19 Nov 17:11:49 17:20:37 73° 267° (W) 17:29:23 435.215
KKS-1 19 Nov 17:13:01 17:17:31 88° 283° (WNW) 17:21:57 437.445
JUGNU 19 Nov 17:27:54 17:30:51 14° 183° (S) 17:33:49 437.505
KAITUO 1B 19 Nov 17:38:24 17:42:01 61° 259° (W) 17:45:41 145.475/437.950
STARS 19 Nov 17:42:35 17:47:00 76° 103° (ESE) 17:51:21 437.465
XW-2D 19 Nov 17:48:59 17:52:16 29° 263° (W) 17:55:34 145.860 - 145.880
CUTE 1.7 + AOD 2 19 Nov 17:52:07 17:56:09 49° 74° (ENE) 18:00:14 437.475
UWE-3 19 Nov 17:55:04 17:58:05 18° 68° (ENE) 18:01:02 435.000/436.395/437.385
CUTE-I 19 Nov 17:56:03 18:01:12 48° 260° (W) 18:06:23 437.470
HO-68 19 Nov 18:02:21 18:09:31 80° 73° (ENE) 18:16:45 435.675
XW-2B 19 Nov 18:04:17 18:07:06 20° 265° (W) 18:09:56 145.730 - 145.750
RS-15 19 Nov 18:06:08 18:17:59 59° 111° (ESE) 18:29:52 29.354- 29.394
SEEDS 19 Nov 18:26:05 18:30:12 76° 78° (ENE) 18:34:23 437.485
NUDT-PHONESAT 19 Nov 18:28:01 18:30:07 15° 267° (W) 18:32:12 437.300
CUBEBUG 2 19 Nov 18:28:52 18:33:30 80° 78° (ENE) 18:38:02 437.445
AAUSAT CUBESAT 2 19 Nov 18:38:40 18:42:32 42° 74° (ENE) 18:46:26 437.432
STRAND 1 19 Nov 18:39:00 18:43:25 29° 96° (E) 18:47:49 437.568
AO-73 19 Nov 18:41:04 18:44:37 25° 71° (ENE) 18:48:08 145.935
XW-2A 19 Nov 18:43:14 18:46:29 55° 76° (ENE) 18:49:45 145.665 - 145.685
Oscar 11 19 Nov 18:59:26 19:03:03 27° 71° (ENE) 19:06:40 .
SRMSAT 19 Nov 19:08:44 19:11:48 14° 176° (S) 19:14:52 437.500
YUBILEINY 19 Nov 19:13:31 19:15:44 11° 285° (WNW) 19:17:56 435.215
ZACube-1 19 Nov 19:24:05 19:28:28 86° 257° (WSW) 19:32:46 437.345
DELFI C3 19 Nov 19:29:44 19:30:01 10° 65° (ENE) 19:30:17 145.870
UWE-3 19 Nov 19:30:04 19:34:14 37° 262° (W) 19:38:20 435.000/436.395/437.385
CUTE 1.7 + AOD 2 19 Nov 19:30:55 19:32:14 11° 269° (W) 19:33:34 437.475
FO-29 19 Nov 19:34:05 19:40:56 32° 93° (E) 19:47:23 435.910
nSIGHT-1 19 Nov 19:46:55 19:49:03 17° 129° (SE) 19:51:10 .
HO-68 19 Nov 19:53:41 19:57:53 16° 269° (W) 20:02:08 435.675
AAUSAT CUBESAT 2 19 Nov 20:16:15 20:18:09 13° 268° (W) 20:20:04 437.432
AO-73 19 Nov 20:17:15 20:20:45 24° 264° (W) 20:24:13 145.935
STRAND 1 19 Nov 20:18:08 20:22:30 29° 292° (WNW) 20:26:51 437.568
RS-15 19 Nov 20:19:21 20:30:54 44° 313° (NW) 20:42:25 29.354- 29.394
ISS 19 Nov 20:24:25 20:27:24 34° 133° (SE) 20:30:25 437.550
Oscar 11 19 Nov 20:35:47 20:39:07 22° 265° (W) 20:42:29 .
SO-50 19 Nov 20:43:35 20:46:35 18° 110° (ESE) 20:49:36 436.795
Max Valier Satellite 19 Nov 20:53:10 20:56:49 80° 77° (ENE) 21:00:29 145.860
EO-88 19 Nov 20:55:35 20:59:06 56° 76° (ENE) 21:02:40 145.990 - 145.960
SRMSAT 19 Nov 20:57:15 21:00:09 14° 186° (S) 21:03:03 437.500
UNISAT 6 19 Nov 20:59:35 21:03:08 25° 96° (E) 21:06:39 437.425
DELFI C3 19 Nov 21:00:21 21:04:12 55° 260° (W) 21:08:08 145.870
TIGRISAT 19 Nov 21:04:24 21:07:58 26° 96° (E) 21:11:30 435.000
FO-29 19 Nov 21:18:33 21:26:03 50° 291° (WNW) 21:33:08 435.910
nSIGHT-1 19 Nov 21:21:59 21:25:02 39° 324° (NW) 21:28:05 .
LO-87 19 Nov 21:26:54 21:29:02 15° 69° (ENE) 21:31:10 145.935 - 145.965
ESTCUBE 1 19 Nov 21:32:58 21:35:48 17° 66° (ENE) 21:38:37 437.505/2401.250
NO-84 19 Nov 21:56:55 22:00:39 29° 36° (NE) 22:04:21 435.350 FM
ISS 19 Nov 22:01:14 22:03:57 23° 329° (NNW) 22:06:38 437.550
AIST 2D 19 Nov 22:07:08 22:08:38 12° 93° (E) 22:10:08 435.315
SO-50 19 Nov 22:22:28 22:26:41 41° 305° (NW) 22:30:58 436.795
PRISM 19 Nov 22:28:57 22:33:08 85° 285° (WNW) 22:37:17 437.425
UNISAT 6 19 Nov 22:36:19 22:39:43 23° 291° (WNW) 22:43:05 437.425
RS-15 19 Nov 22:40:25 22:47:57 18° 344° (NNW) 22:55:22 29.354- 29.394
TIGRISAT 19 Nov 22:41:11 22:44:31 23° 291° (WNW) 22:47:49 435.000
EO-79 19 Nov 22:44:49 22:46:39 13° 92° (E) 22:48:28 145.935-145.965
O/OREOS (USA 219) 19 Nov 22:46:34 22:50:34 29° 63° (ENE) 22:54:31 437.305
NANOSAT C BR1 19 Nov 22:49:14 22:50:59 12° 92° (E) 22:52:43 145.865
POLYITAN 1 19 Nov 22:58:40 23:01:38 19° 94° (E) 23:04:36 437.675
LO-87 19 Nov 22:59:01 23:02:10 28° 263° (W) 23:05:19 145.935 - 145.965
ESTCUBE 1 19 Nov 23:08:01 23:12:13 41° 261° (W) 23:16:28 437.505/2401.250
SPROUT 19 Nov 23:08:47 23:12:51 43° 73° (ENE) 23:16:55 437.525
QB50P2 19 Nov 23:21:03 23:25:00 39° 99° (E) 23:28:56 145.880/145.840
NO-84 19 Nov 23:34:07 23:38:05 38° 233° (SW) 23:41:56 435.350 FM
VELOX 1 19 Nov 23:35:08 23:39:27 56° 74° (ENE) 23:43:49 145.980
AIST 2D 19 Nov 23:38:43 23:41:52 31° 287° (WNW) 23:45:00 435.315
PCSat 19 Nov 23:42:36 23:47:43 45° 111° (ESE) 23:52:51 145.827
50 SAT 19 Nov 23:43:02 23:43:52 11° 67° (ENE) 23:44:41 437.505
DUCHIFAT 1 20 Nov 00:13:05 00:17:14 70° 284° (WNW) 00:21:21 145.980
EO-79 20 Nov 00:18:36 00:22:36 44° 287° (WNW) 00:26:34 145.935-145.965
NANOSAT C BR1 20 Nov 00:22:54 00:26:53 45° 286° (WNW) 00:30:51 145.865
DX 1 20 Nov 00:25:39 00:29:47 44° 73° (ENE) 00:33:58 434.975-435.025
O/OREOS (USA 219) 20 Nov 00:26:15 00:29:46 22° 259° (WSW) 00:33:16 437.305
POLYITAN 1 20 Nov 00:33:45 00:37:26 30° 289° (WNW) 00:41:04 437.675
SPROUT 20 Nov 00:46:41 00:48:54 14° 267° (W) 00:51:07 437.525
QB50P2 20 Nov 00:57:59 01:00:26 15° 293° (WNW) 01:02:52 145.880/145.840
RS-15 20 Nov 00:59:07 01:07:19 20° 22° (NNE) 01:15:13 29.354- 29.394
UKube-1 20 Nov 01:10:43 01:15:02 89° 242° (WSW) 01:19:22 .
BUGSAT 1 20 Nov 01:11:42 01:15:41 62° 286° (WNW) 01:19:38 437.445
50 SAT 20 Nov 01:12:43 01:15:37 30° 262° (W) 01:18:32 437.505
VELOX 1 20 Nov 01:14:48 01:16:12 11° 269° (W) 01:17:36 145.980
Oscar 19 20 Nov 01:23:44 01:28:53 76° 102° (ESE) 01:34:03 437.125/150
PCSat 20 Nov 01:26:56 01:31:16 24° 308° (NW) 01:35:39 145.827
BEESAT 20 Nov 01:32:43 01:36:16 21° 67° (ENE) 01:39:49 436.000
Gurwin Techsat 1B 20 Nov 01:37:11 01:42:30 71° 102° (ESE) 01:47:48 435.225
ITUPSAT 1 20 Nov 01:41:01 01:44:54 25° 68° (ENE) 01:48:47 437.325
DX 1 20 Nov 02:03:51 02:06:09 14° 267° (W) 02:08:27 434.975-435.025
MOZHAYETS 4 20 Nov 02:06:30 02:10:59 59° 74° (ENE) 02:15:29
nSIGHT-1 20 Nov 02:15:32 02:17:06 13° 23° (NNE) 02:18:38 .
CUBESAT XI-V 20 Nov 02:16:06 02:18:55 16° 66° (ENE) 02:21:45 437.345
AO-7 20 Nov 02:17:10 02:23:52 26° 96° (E) 02:30:30 .
BEESAT 3 20 Nov 02:23:31 02:27:24 57° 117° (ESE) 02:31:21 437.485
M-CUBED/EXP-1 PRIME 20 Nov 02:34:35 02:39:08 69° 106° (ESE) 02:43:46 437.505
ISS 20 Nov 02:54:22 02:56:51 20° 29° (NNE) 02:59:21 437.550
Oscar 19 20 Nov 03:05:28 03:07:32 12° 298° (WNW) 03:09:35 437.125/150
BEESAT 20 Nov 03:09:23 03:13:46 36° 262° (W) 03:18:11 436.000
RS-15 20 Nov 03:11:42 03:23:20 56° 52° (NE) 03:34:17 29.354- 29.394
ITAMSAT 1 20 Nov 03:13:13 03:18:12 45° 100° (E) 03:23:09 435.822/435.867
ITUPSAT 1 20 Nov 03:18:22 03:22:33 30° 263° (W) 03:26:46 437.325
Gurwin Techsat 1B 20 Nov 03:19:12 03:21:48 14° 298° (WNW) 03:24:24 435.225
BEESAT 2 20 Nov 03:31:28 03:35:27 89° 309° (NW) 03:39:31 435.950
AO-85 20 Nov 03:39:50 03:43:22 36° 115° (ESE) 03:47:02 145.980
MOZHAYETS 4 20 Nov 03:47:07 03:48:28 11° 269° (W) 03:49:49
